| time (UTC) | temp C | wind direction | speed KPH | gust KPH | rain 1hr cm | rain 24hr cm | rain mn cm | humidity % | barometer mb |
| 20260507212431 | 9 | 0 | 0.0 | 0.0 | 0.00 | 0.00 | 0.00 | 75 | |
| 20260507211931 | 9 | 0 | 0.0 | 0.0 | 0.00 | 0.00 | 0.00 | 75 | |
| 20260507211431 | 9 | 0 | 0.0 | 0.0 | 0.00 | 0.00 | 0.00 | 75 | |
| 20260507210430 | 10 | 0 | 0.0 | 0.0 | 0.00 | 0.00 | 0.00 | 74 | |
| 20260507205430 | 10 | 0 | 0.0 | 0.0 | 0.00 | 0.00 | 0.00 | 74 | |
| 20260507204929 | 10 | 0 | 0.0 | 0.0 | 0.00 | 0.00 | 0.00 | 74 | |
| 20260507204429 | 10 | 0 | 0.0 | 0.0 | 0.00 | 0.00 | 0.00 | 73 | |
| 20260507203929 | 10 | 0 | 0.0 | 0.0 | 0.00 | 0.00 | 0.00 | 73 | |
| 20260507203428 | 10 | 0 | 0.0 | 0.0 | 0.00 | 0.00 | 0.00 | 73 | |
| 20260507201927 | 10 | 0 | 0.0 | 0.0 | 0.00 | 0.00 | 0.00 | 72 | |
| 20260507201427 | 11 | 0 | 0.0 | 0.0 | 0.00 | 0.00 | 0.00 | 71 | |
| 20260507200927 | 11 | 0 | 0.0 | 0.0 | 0.00 | 0.00 | 0.00 | 72 | |
| 20260507200427 | 11 | 0 | 0.0 | 0.0 | 0.00 | 0.00 | 0.00 | 72 | |
| 20260507193925 | 11 | 0 | 0.0 | 0.0 | 0.00 | 0.00 | 0.00 | 71 | |
| 20260507192925 | 11 | 0 | 0.0 | 0.0 | 0.00 | 0.00 | 0.00 | 71 | |
| 20260507192425 | 11 | 0 | 0.0 | 0.0 | 0.00 | 0.00 | 0.00 | 70 | |
| 20260507191424 | 11 | 0 | 0.0 | 0.0 | 0.00 | 0.00 | 0.00 | 69 | |
| 20260507185923 | 11 | 0 | 0.0 | 0.0 | 0.00 | 0.00 | 0.00 | 68 | |
| 20260507185423 | 11 | 0 | 0.0 | 0.0 | 0.00 | 0.00 | 0.00 | 68 | |
| 20260507184923 | 11 | 0 | 0.0 | 0.0 | 0.00 | 0.00 | 0.00 | 68 | |
| 20260507184422 | 12 | 0 | 0.0 | 0.0 | 0.00 | 0.00 | 0.00 | 67 | |
| 20260507183922 | 11 | 0 | 0.0 | 0.0 | 0.00 | 0.00 | 0.00 | 67 | |
| 20260507183422 | 12 | 0 | 0.0 | 0.0 | 0.00 | 0.00 | 0.00 | 67 | |
| 20260507182921 | 12 | 0 | 0.0 | 0.0 | 0.00 | 0.00 | 0.00 | 67 | |
| 20260507182421 | 12 | 0 | 0.0 | 0.0 | 0.00 | 0.00 | 0.00 | 66 | |
| 20260507181921 | 12 | 0 | 0.0 | 0.0 | 0.00 | 0.00 | 0.00 | 66 | |
| 20260507181421 | 12 | 0 | 0.0 | 0.0 | 0.00 | 0.00 | 0.00 | 66 | |
| 20260507180920 | 12 | 0 | 0.0 | 0.0 | 0.00 | 0.00 | 0.00 | 66 | |
| 20260507180420 | 12 | 0 | 0.0 | 0.0 | 0.00 | 0.00 | 0.00 | 65 | |
| 20260507175920 | 12 | 0 | 0.0 | 0.0 | 0.00 | 0.00 | 0.00 | 65 | |
| 20260507175419 | 12 | 312 | 0.0 | 3.2 | 0.00 | 0.00 | 0.00 | 65 | |
| 20260507174419 | 12 | 0 | 0.0 | 0.0 | 0.00 | 0.00 | 0.00 | 64 | |
| 20260507173418 | 12 | 345 | 0.0 | 1.6 | 0.00 | 0.00 | 0.00 | 64 | |
| 20260507172918 | 12 | 87 | 1.6 | 4.8 | 0.00 | 0.00 | 0.00 | 63 | |
| 20260507171417 | 13 | 0 | 0.0 | 0.0 | 0.00 | 0.00 | 0.00 | 62 | |
| 20260507170917 | 13 | 0 | 0.0 | 0.0 | 0.00 | 0.00 | 0.00 | 62 | |
| 20260507165416 | 13 | 0 | 0.0 | 0.0 | 0.00 | 0.00 | 0.00 | 61 | |
| 20260507163915 | 13 | 332 | 0.0 | 4.8 | 0.00 | 0.00 | 0.00 | 61 | |
| 20260507163415 | 13 | 46 | 0.0 | 4.8 | 0.00 | 0.00 | 0.00 | 61 | |
| 20260507162915 | 13 | 72 | 0.0 | 4.8 | 0.00 | 0.00 | 0.00 | 60 | |
| 20260507162414 | 13 | 37 | 0.0 | 4.8 | 0.00 | 0.00 | 0.00 | 59 | |
| 20260507161914 | 13 | 343 | 1.6 | 6.4 | 0.00 | 0.00 | 0.00 | 59 | |
| 20260507160413 | 14 | 343 | 0.0 | 4.8 | 0.00 | 0.00 | 0.00 | 58 | |
| 20260507155413 | 15 | 87 | 0.0 | 3.2 | 0.00 | 0.00 | 0.00 | 57 | |
| 20260507154912 | 15 | 53 | 1.6 | 4.8 | 0.00 | 0.00 | 0.00 | 57 | |
| 20260507153912 | 15 | 49 | 1.6 | 6.4 | 0.00 | 0.00 | 0.00 | 55 | |
| 20260507152911 | 15 | 56 | 3.2 | 6.4 | 0.00 | 0.00 | 0.00 | 55 | |
| 20260507151911 | 15 | 41 | 1.6 | 8.0 | 0.00 | 0.00 | 0.00 | 53 | |
| 20260507151410 | 15 | 304 | 1.6 | 8.0 | 0.00 | 0.00 | 0.00 | 54 | |
| 20260507150910 | 16 | 87 | 1.6 | 8.0 | 0.00 | 0.00 | 0.00 | 53 | |
| 20260507145910 | 16 | 93 | 1.6 | 6.4 | 0.00 | 0.00 | 0.00 | 53 | |
| 20260507145409 | 16 | 18 | 3.2 | 8.0 | 0.00 | 0.00 | 0.00 | 52 | |
| 20260507143908 | 16 | 39 | 0.0 | 4.8 | 0.00 | 0.00 | 0.00 | 55 | |
| 20260507143408 | 16 | 288 | 0.0 | 3.2 | 0.00 | 0.00 | 0.00 | 55 | |
| 20260507142908 | 16 | 323 | 1.6 | 6.4 | 0.00 | 0.00 | 0.00 | 54 | |
| 20260507141907 | 16 | 45 | 1.6 | 6.4 | 0.00 | 0.00 | 0.00 | 54 | |
| 20260507141407 | 16 | 46 | 0.0 | 4.8 | 0.00 | 0.00 | 0.00 | 52 | |
| 20260507140407 | 16 | 93 | 0.0 | 8.0 | 0.00 | 0.00 | 0.00 | 52 | |
| 20260507132404 | 16 | 90 | 3.2 | 14.5 | 0.00 | 0.00 | 0.00 | 54 | |
| 20260507131404 | 16 | 98 | 3.2 | 9.7 | 0.00 | 0.00 | 0.00 | 54 | |
| 20260507130403 | 15 | 65 | 1.6 | 6.4 | 0.00 | 0.00 | 0.00 | 57 | |
| 20260507125903 | 15 | 77 | 1.6 | 9.7 | 0.00 | 0.00 | 0.00 | 57 | |
| 20260507124402 | 15 | 38 | 1.6 | 6.4 | 0.00 | 0.00 | 0.00 | 59 | |
| 20260507123902 | 14 | 44 | 3.2 | 8.0 | 0.00 | 0.00 | 0.00 | 58 | |
| 20260507122901 | 15 | 56 | 1.6 | 6.4 | 0.00 | 0.00 | 0.00 | 59 | |
| 20260507122401 | 14 | 68 | 1.6 | 6.4 | 0.00 | 0.00 | 0.00 | 59 | |
| 20260507120900 | 15 | 11 | 1.6 | 4.8 | 0.00 | 0.00 | 0.00 | 58 | |
| 20260507120400 | 15 | 52 | 3.2 | 8.0 | 0.00 | 0.00 | 0.00 | 56 | |
| 20260507115359 | 15 | 94 | 1.6 | 6.4 | 0.00 | 0.00 | 0.00 | 58 | |
| 20260507114859 | 15 | 356 | 0.0 | 8.0 | 0.00 | 0.00 | 0.00 | 58 | |
| 20260507114359 | 15 | 1 | 1.6 | 4.8 | 0.00 | 0.00 | 0.00 | 58 | |
| 20260507113858 | 15 | 135 | 1.6 | 6.4 | 0.00 | 0.00 | 0.00 | 58 | |
| 20260507113358 | 15 | 79 | 1.6 | 6.4 | 0.00 | 0.00 | 0.00 | 58 | |
| 20260507110857 | 14 | 84 | 4.8 | 12.9 | 0.00 | 0.00 | 0.00 | 61 | |
| 20260507110356 | 14 | 105 | 3.2 | 9.7 | 0.00 | 0.00 | 0.00 | 63 | |
| 20260507105356 | 13 | 48 | 4.8 | 11.3 | 0.00 | 0.00 | 0.00 | 60 | |
| 20260507104855 | 13 | 17 | 4.8 | 11.3 | 0.00 | 0.00 | 0.00 | 64 | |
| 20260507104355 | 13 | 38 | 3.2 | 8.0 | 0.00 | 0.00 | 0.00 | 64 | |
| 20260507103855 | 12 | 76 | 3.2 | 8.0 | 0.00 | 0.00 | 0.00 | 66 | |
| 20260507103355 | 12 | 60 | 4.8 | 9.7 | 0.00 | 0.00 | 0.00 | 68 | |
| 20260507101854 | 11 | 90 | 3.2 | 6.4 | 0.00 | 0.00 | 0.00 | 71 | |
| 20260507100853 | 11 | 46 | 3.2 | 6.4 | 0.00 | 0.00 | 0.00 | 67 | |
| 20260507095853 | 11 | 359 | 1.6 | 6.4 | 0.00 | 0.00 | 0.00 | 72 | |
| 20260507095352 | 11 | 45 | 1.6 | 6.4 | 0.00 | 0.00 | 0.00 | 70 | |
| 20260507094852 | 11 | 82 | 1.6 | 8.0 | 0.00 | 0.00 | 0.00 | 72 | |
| 20260507094352 | 11 | 86 | 3.2 | 8.0 | 0.00 | 0.00 | 0.00 | 72 | |
| 20260507093851 | 11 | 35 | 3.2 | 11.3 | 0.00 | 0.00 | 0.00 | 73 | |
| 20260507092851 | 11 | 94 | 4.8 | 12.9 | 0.00 | 0.00 | 0.00 | 74 | |
| 20260507092351 | 11 | 68 | 3.2 | 9.7 | 0.00 | 0.00 | 0.00 | 76 | |
| 20260507091850 | 10 | 302 | 1.6 | 8.0 | 0.00 | 0.00 | 0.00 | 77 | |
| 20260507091350 | 10 | 105 | 3.2 | 9.7 | 0.00 | 0.00 | 0.00 | 77 | |
| 20260507090850 | 10 | 76 | 1.6 | 6.4 | 0.00 | 0.00 | 0.00 | 78 | |
| 20260507090350 | 10 | 87 | 1.6 | 6.4 | 0.00 | 0.00 | 0.00 | 76 | |
| 20260507085849 | 10 | 53 | 1.6 | 6.4 | 0.00 | 0.00 | 0.00 | 80 | |
| 20260507085349 | 9 | 63 | 3.2 | 8.0 | 0.00 | 0.00 | 0.00 | 80 | |
| 20260507084849 | 9 | 70 | 1.6 | 6.4 | 0.00 | 0.00 | 0.00 | 80 | |
| 20260507084349 | 9 | 15 | 3.2 | 6.4 | 0.00 | 0.00 | 0.00 | 81 | |
| 20260507083848 | 9 | 110 | 3.2 | 8.0 | 0.00 | 0.00 | 0.00 | 82 | |
| 20260507083348 | 9 | 326 | 1.6 | 6.4 | 0.00 | 0.00 | 0.00 | 81 | |
| 20260507082848 | 9 | 308 | 3.2 | 11.3 | 0.00 | 0.00 | 0.00 | 82 | |
| 20260507082347 | 9 | 297 | 1.6 | 4.8 | 0.00 | 0.00 | 0.00 | 84 | |
| 20260507081847 | 8 | 305 | 1.6 | 6.4 | 0.00 | 0.00 | 0.00 | 85 | |
| 20260507081347 | 8 | 62 | 1.6 | 6.4 | 0.00 | 0.00 | 0.00 | 86 | |
| 20260507080846 | 8 | 83 | 1.6 | 8.0 | 0.00 | 0.00 | 0.00 | 86 | |
| 20260507080346 | 8 | 94 | 1.6 | 6.4 | 0.00 | 0.00 | 0.00 | 84 | |
| 20260507075346 | 8 | 101 | 1.6 | 4.8 | 0.00 | 0.00 | 0.00 | 84 | |
| 20260507074845 | 8 | 84 | 0.0 | 3.2 | 0.00 | 0.00 | 0.00 | 85 | |
| 20260507074345 | 8 | 0 | 0.0 | 0.0 | 0.00 | 0.00 | 0.00 | 85 | |
| 20260507072844 | 7 | 0 | 0.0 | 0.0 | 0.00 | 0.00 | 0.00 | 86 | |
| 20260507071343 | 7 | 0 | 0.0 | 0.0 | 0.00 | 0.00 | 0.00 | 87 | |
| 20260507070843 | 7 | 0 | 0.0 | 0.0 | 0.00 | 0.00 | 0.00 | 87 | |
| 20260507070343 | 7 | 0 | 0.0 | 0.0 | 0.00 | 0.00 | 0.00 | 87 | |
| 20260507065843 | 7 | 0 | 0.0 | 0.0 | 0.00 | 0.00 | 0.00 | 89 | |
| 20260507065342 | 7 | 308 | 0.0 | 1.6 | 0.00 | 0.00 | 0.00 | 89 | |
| 20260507064842 | 7 | 0 | 0.0 | 0.0 | 0.00 | 0.00 | 0.00 | 89 | |
| 20260507063842 | 6 | 0 | 0.0 | 0.0 | 0.00 | 0.00 | 0.00 | 90 | |
| 20260507063341 | 6 | 0 | 0.0 | 0.0 | 0.00 | 0.00 | 0.00 | 90 | |
| 20260507062841 | 6 | 0 | 0.0 | 0.0 | 0.00 | 0.00 | 0.00 | 90 | |
| 20260507062340 | 6 | 0 | 0.0 | 0.0 | 0.00 | 0.00 | 0.00 | 90 | |
| 20260507061840 | 6 | 0 | 0.0 | 0.0 | 0.00 | 0.00 | 0.00 | 90 | |
| 20260507061340 | 6 | 0 | 0.0 | 0.0 | 0.00 | 0.00 | 0.00 | 90 | |
| 20260507060858 | 6 | 101 | 0.0 | 0.0 | 0.00 | 0.00 | 0.00 | 90 | |
| 20260507060339 | 6 | 100 | 0.0 | 3.2 | 0.00 | 0.00 | 0.00 | 90 | |
| 20260507055839 | 6 | 39 | 0.0 | 3.2 | 0.00 | 0.00 | 0.00 | 90 | |
| 20260507055339 | 6 | 0 | 0.0 | 0.0 | 0.00 | 0.00 | 0.00 | 90 | |
| 20260507054839 | 6 | 0 | 0.0 | 0.0 | 0.00 | 0.00 | 0.00 | 90 | |
| 20260507054338 | 6 | 0 | 0.0 | 0.0 | 0.00 | 0.00 | 0.00 | 90 | |
| 20260507053838 | 6 | 0 | 0.0 | 0.0 | 0.00 | 0.00 | 0.00 | 90 | |
| 20260507052837 | 5 | 0 | 0.0 | 0.0 | 0.00 | 0.00 | 0.00 | 90 | |
| 20260507052337 | 5 | 0 | 0.0 | 0.0 | 0.00 | 0.00 | 0.00 | 90 | |
| 20260507051337 | 5 | 0 | 0.0 | 0.0 | 0.00 | 0.00 | 0.00 | 89 | |
| 20260507050836 | 5 | 0 | 0.0 | 0.0 | 0.00 | 0.00 | 0.00 | 89 | |
| 20260507050336 | 5 | 0 | 0.0 | 0.0 | 0.00 | 0.00 | 0.00 | 89 | |
| 20260507045836 | 5 | 0 | 0.0 | 0.0 | 0.00 | 0.00 | 0.00 | 89 | |
| 20260507044835 | 5 | 0 | 0.0 | 0.0 | 0.00 | 0.00 | 0.00 | 88 | |
| 20260507044335 | 5 | 0 | 0.0 | 0.0 | 0.00 | 0.00 | 0.00 | 88 | |
| 20260507043835 | 5 | 0 | 0.0 | 0.0 | 0.00 | 0.00 | 0.00 | 88 | |
| 20260507042834 | 5 | 0 | 0.0 | 0.0 | 0.00 | 0.00 | 0.00 | 89 | |
| 20260507041833 | 5 | 0 | 0.0 | 0.0 | 0.00 | 0.00 | 0.00 | 88 | |
| 20260507041333 | 5 | 0 | 0.0 | 0.0 | 0.00 | 0.00 | 0.00 | 89 | |
| 20260507040833 | 5 | 0 | 0.0 | 0.0 | 0.00 | 0.00 | 0.00 | 88 | |
| 20260507035832 | 5 | 0 | 0.0 | 0.0 | 0.00 | 0.00 | 0.00 | 88 | |
| 20260507033831 | 5 | 0 | 0.0 | 0.0 | 0.00 | 0.00 | 0.00 | 88 | |
| 20260507032831 | 5 | 0 | 0.0 | 0.0 | 0.00 | 0.00 | 0.00 | 89 | |
| 20260507032330 | 5 | 0 | 0.0 | 0.0 | 0.00 | 0.00 | 0.00 | 89 | |
| 20260507031830 | 5 | 0 | 0.0 | 0.0 | 0.00 | 0.00 | 0.00 | 88 | |
| 20260507031330 | 5 | 0 | 0.0 | 0.0 | 0.00 | 0.00 | 0.00 | 88 | |
| 20260507030829 | 5 | 0 | 0.0 | 0.0 | 0.00 | 0.00 | 0.00 | 89 | |
| 20260507030329 | 5 | 0 | 0.0 | 0.0 | 0.00 | 0.00 | 0.00 | 89 | |
| 20260507025829 | 5 | 0 | 0.0 | 0.0 | 0.00 | 0.00 | 0.00 | 89 | |
| 20260507025329 | 5 | 0 | 0.0 | 0.0 | 0.00 | 0.00 | 0.00 | 89 | |
| 20260507024828 | 5 | 0 | 0.0 | 0.0 | 0.00 | 0.00 | 0.00 | 88 | |
| 20260507022827 | 5 | 0 | 0.0 | 0.0 | 0.00 | 0.00 | 0.00 | 89 | |
| 20260507022327 | 5 | 0 | 0.0 | 0.0 | 0.00 | 0.00 | 0.00 | 89 | |
| 20260507021326 | 5 | 0 | 0.0 | 0.0 | 0.00 | 0.00 | 0.00 | 88 | |
| 20260507020326 | 5 | 0 | 0.0 | 0.0 | 0.00 | 0.00 | 0.00 | 88 | |
| 20260507015825 | 5 | 0 | 0.0 | 0.0 | 0.00 | 0.00 | 0.00 | 89 | |
| 20260507015325 | 5 | 0 | 0.0 | 0.0 | 0.00 | 0.00 | 0.00 | 88 | |
| 20260507013824 | 5 | 0 | 0.0 | 0.0 | 0.00 | 0.00 | 0.00 | 88 | |
| 20260507013324 | 5 | 0 | 0.0 | 0.0 | 0.00 | 0.00 | 0.00 | 89 | |
| 20260507012824 | 5 | 0 | 0.0 | 0.0 | 0.00 | 0.00 | 0.00 | 88 | |
| 20260507011823 | 5 | 0 | 0.0 | 0.0 | 0.00 | 0.00 | 0.00 | 88 | |
| 20260507011323 | 5 | 0 | 0.0 | 0.0 | 0.00 | 0.00 | 0.00 | 88 | |
| 20260507010322 | 5 | 0 | 0.0 | 0.0 | 0.00 | 0.00 | 0.00 | 88 | |
| 20260507005822 | 5 | 0 | 0.0 | 0.0 | 0.00 | 0.00 | 0.00 | 88 | |
| 20260507004821 | 5 | 0 | 0.0 | 0.0 | 0.00 | 0.00 | 0.00 | 88 | |
| 20260507004321 | 5 | 0 | 0.0 | 0.0 | 0.00 | 0.00 | 0.00 | 88 | |
| 20260507003821 | 5 | 0 | 0.0 | 0.0 | 0.00 | 0.00 | 0.00 | 88 | |
| 20260507003321 | 5 | 0 | 0.0 | 0.0 | 0.00 | 0.00 | 0.00 | 89 | |
| 20260507002820 | 5 | 0 | 0.0 | 0.0 | 0.00 | 0.00 | 0.00 | 88 | |
| 20260507002320 | 5 | 0 | 0.0 | 0.0 | 0.00 | 0.00 | 0.00 | 88 | |
| 20260507001820 | 5 | 0 | 0.0 | 0.0 | 0.00 | 0.00 | 0.00 | 88 | |
| 20260507001320 | 5 | 0 | 0.0 | 0.0 | 0.00 | 0.00 | 0.00 | 87 | |
| 20260507000819 | 4 | 0 | 0.0 | 0.0 | 0.00 | 0.00 | 0.00 | 87 | |
| 20260507000321 | 5 | 0 | 0.0 | 0.0 | 0.00 | 0.00 | 0.00 | 87 | |
| 20260506235318 | 5 | 0 | 0.0 | 0.0 | 0.00 | 0.00 | 0.00 | 88 | |
| 20260506234818 | 5 | 242 | 0.0 | 1.6 | 0.00 | 0.00 | 0.00 | 87 | |
| 20260506233818 | 5 | 0 | 0.0 | 0.0 | 0.00 | 0.00 | 0.00 | 87 | |
| 20260506233317 | 5 | 0 | 0.0 | 0.0 | 0.00 | 0.00 | 0.00 | 87 | |
| 20260506232817 | 5 | 0 | 0.0 | 0.0 | 0.00 | 0.00 | 0.00 | 87 | |
| 20260506232317 | 5 | 0 | 0.0 | 0.0 | 0.00 | 0.00 | 0.00 | 86 | |
| 20260506231816 | 5 | 0 | 0.0 | 0.0 | 0.00 | 0.00 | 0.00 | 86 | |
| 20260506231316 | 5 | 0 | 0.0 | 0.0 | 0.00 | 0.00 | 0.00 | 87 | |
| 20260506230816 | 5 | 0 | 0.0 | 0.0 | 0.00 | 0.00 | 0.00 | 86 | |
| 20260506230316 | 5 | 0 | 0.0 | 0.0 | 0.00 | 0.00 | 0.00 | 86 | |
| 20260506225815 | 5 | 0 | 0.0 | 0.0 | 0.00 | 0.00 | 0.00 | 86 | |
| 20260506225315 | 5 | 224 | 0.0 | 3.2 | 0.00 | 0.00 | 0.20 | 85 | |
| 20260506224815 | 5 | 0 | 0.0 | 0.0 | 0.00 | 0.00 | 0.20 | 86 | |
| 20260506224315 | 5 | 0 | 0.0 | 0.0 | 0.00 | 0.00 | 0.20 | 85 | |
| 20260506223814 | 5 | 0 | 0.0 | 0.0 | 0.00 | 0.00 | 0.20 | 85 | |
| 20260506223314 | 5 | 0 | 0.0 | 0.0 | 0.00 | 0.00 | 0.20 | 84 | |
| 20260506222313 | 5 | 0 | 0.0 | 0.0 | 0.00 | 0.00 | 0.20 | 84 | |
| 20260506221813 | 5 | 0 | 0.0 | 0.0 | 0.00 | 0.00 | 0.20 | 84 | |
| 20260506221313 | 5 | 0 | 0.0 | 0.0 | 0.00 | 0.00 | 0.20 | 84 | |
| 20260506220812 | 5 | 0 | 0.0 | 0.0 | 0.00 | 0.00 | 0.20 | 84 | |
| 20260506220312 | 5 | 0 | 0.0 | 0.0 | 0.00 | 0.00 | 0.20 | 84 | |
| 20260506215312 | 5 | 0 | 0.0 | 0.0 | 0.00 | 0.00 | 0.20 | 84 | |
| 20260506214811 | 5 | 0 | 0.0 | 0.0 | 0.00 | 0.00 | 0.20 | 84 | |
| 20260506213811 | 5 | 0 | 0.0 | 0.0 | 0.00 | 0.00 | 0.20 | 83 | |
| 20260506213310 | 5 | 0 | 0.0 | 0.0 | 0.00 | 0.00 | 0.20 | 83 |